Location: De Lemmer
(52.8462°N, 5.7091°E)
Time: 10:57:46
(UTC+00:00)

Daily predictions for brighter satellites

Satellite Brightness Start Highest point End
(mag) Time Altitude Azimuth Time Altitude Azimuth Time Altitude Azimuth
Lacrosse 5 rocket 1.5 18:09:00 10° WSW 18:13:15 82° SSE 18:17:43 10° ENE
Okean-O 3.3 18:09:40 10° S 18:14:03 61° WSW 18:18:28 10° NNW
Cosmos 2061 Rocket 4.4 18:09:31 10° SSW 18:15:47 73° WNW 18:22:11 10° N
CZ-4B R/B 4.3 18:13:00 10° N 18:15:47 23° WNW 18:18:35 10° WSW
Cosmos 1437 2.5 18:13:43 10° N 18:16:43 67° ENE 18:19:42 10° SSE
Ariane Rocket 3.7 18:12:45 10° SE 18:17:22 36° ENE 18:22:00 10° N
NOSS 3-2 (A) 4.2 18:10:32 10° NW 18:17:35 62° NE 18:25:41 10° ESE
Meteor 1-21 4.2 18:13:49 10° N 18:19:27 76° ENE 18:25:03 10° SSE
USA 116 3.6 18:18:16 10° NNE 18:21:32 50° ESE 18:25:06 10° S
Cosmos 2227 Rocket 3.7 18:17:14 10° WSW 18:22:33 40° NW 18:27:53 10° NNE
GP-B 3.6 18:18:44 10° N 18:23:10 69° W 18:27:34 10° SSW
SKYMED 2 4.3 18:20:20 10° N 18:24:39 60° WNW 18:28:55 10° SSW
CSL-04 Debris 4.3 18:19:51 10° SSE 18:25:15 87° WSW 18:30:42 10° NNW
Cosmos 1603 4.2 18:22:15 10° NW 18:27:52 63° WSW 18:33:25 10° SSE
NOSS 2-3 (D) 4.3 18:24:16 10° WSW 18:28:39 65° NW 18:34:08 10° NE
YAOGAN 1 3.3 18:25:23 10° S 18:29:39 58° W 18:33:56 10° NNW
HJ-1C 3.3 18:28:42 10° SSE 18:31:59 88° WSW 18:35:19 10° NNW
Cosmos 1867 3.6 18:26:34 10° NW 18:32:06 90° SSE 18:37:34 10° SE
Cosmos 1898 Rocket 3.5 18:27:41 10° SSW 18:32:48 67° ESE 18:37:58 10° NNE
Okean 2 3.9 18:28:49 10° NNW 18:32:59 67° W 18:37:07 10° S
Timation 1 Rocket 4.4 18:27:23 10° SSW 18:33:22 89° SE 18:39:24 10° NNE
CSL-04 Rocket 3.9 18:29:34 10° SSE 18:34:59 78° WSW 18:40:33 10° NNW
Cosmos 1536 Rocket 4.3 18:32:37 10° N 18:36:40 33° ENE 18:40:44 10° SE
USA 234 4.4 18:36:33 10° ENE 18:41:18 21° SE 18:46:01 10° S
Cosmos 1626 4.2 18:40:45 10° NE 18:42:12 12° ENE 18:43:18 11° ENE
CREW DRAGON DEMO-1 DEB 2.8 18:42:42 10° W 18:45:43 71° S 18:47:59 16° E
Cosmos 858 Rocket 4.5 18:40:52 10° S 18:46:02 64° ESE 18:51:12 10° NNE
Cosmos 1782 Rocket 3.6 18:45:50 10° S 18:50:15 88° W 18:54:45 10° N
Cosmos 807 4.4 18:47:07 10° S 18:50:18 89° ESE 18:54:09 10° N
USA 229 DEB 4.5 18:44:08 10° WSW 18:50:36 53° NNW 18:57:33 10° NE
USA 229 4.5 18:44:12 10° WSW 18:50:42 53° NNW 18:57:38 10° NE
Cosmos 1025 Rocket 3.2 18:46:29 10° N 18:50:48 55° ENE 18:55:07 10° SSE
Cosmos 1975 3.2 18:47:15 10° SSW 18:51:20 69° WNW 18:55:26 10° N
Cosmos 2233 Rocket 4.3 18:45:22 10° SSW 18:51:36 72° WNW 18:57:48 10° N
NOSS 3-2 (C) 4.1 18:44:37 10° NW 18:51:42 64° NE 18:58:44 14° ESE
CZ-4 R/B 3.6 18:48:12 10° SSW 18:51:57 30° W 18:55:43 10° NNW
Cosmos 2151 Rocket 4.3 18:48:03 10° SSE 18:52:00 32° E 18:55:59 10° NNE
Cosmos 372 Rocket 4.4 18:47:13 10° S 18:52:03 39° ESE 18:56:53 10° NE
USA 186 1.7 18:49:26 10° SSE 18:52:31 63° ENE 18:55:46 10° N
Nadezhda 4 Rocket 4.1 18:51:25 10° N 18:57:27 57° ENE 19:03:27 10° SSE
Cosmos 2082 Rocket 4.0 18:56:54 10° NNW 19:00:47 19° NNE 19:04:40 10° ENE
Cosmos 1937 Rocket 3.5 18:57:14 10° SSW 19:02:29 84° ESE 19:07:44 10° NNE
MOS 1 Rocket 3.1 18:57:58 10° NNE 19:02:35 81° ESE 19:06:55 10° SSW
NOSS 3-1 (A) 4.3 18:57:02 10° WSW 19:02:43 53° NNW 19:09:31 10° NE
OBJECT-B 1.5 19:01:23 21° ESE 19:03:01 35° ENE 19:06:02 10° N
Cosmos 2034 Rocket 4.3 18:58:03 10° SSE 19:04:06 48° E 19:10:10 10° NNE
FREGAT/IRIS 2.1 19:05:32 21° SSE 19:07:06 65° ENE 19:09:42 10° N
Cosmos 1674 3.2 19:03:56 10° N 19:07:36 39° ENE 19:09:42 21° SE
COSMOS 2406 4.3 19:03:56 10° NNW 19:08:56 30° NE 19:12:17 17° E
Cosmos 1975 Rocket 4.3 19:06:25 10° NNW 19:10:33 43° W 19:14:38 10° SSW
Meteor 1-24 Rocket 4.5 19:06:25 10° N 19:11:18 32° ENE 19:14:11 20° ESE
NOSS 8 (H) 4.0 19:11:15 10° SW 19:14:19 85° SE 19:17:26 10° NE
In-Cosmos 22 4.1 19:09:19 10° NNW 19:14:37 89° W 19:19:58 10° S
Cosmos 468 4.5 19:10:32 10° NNW 19:15:55 81° ENE 19:20:21 15° SSE
NOSS 2-2 (E) 3.2 19:14:40 10° SSW 19:18:09 57° SE 19:22:15 10° NE
Cosmos 1707 3.4 19:16:23 10° NNW 19:20:10 54° W 19:23:54 10° S
Resurs 01 Rocket 2.2 19:19:16 24° ESE 19:21:25 41° ENE 19:25:37 10° N
H-2A R/B 3.4 19:17:24 10° SSW 19:22:03 40° W 19:26:49 10° NNW
CZ-2C R/B 2.7 19:17:30 10° NNE 19:22:59 63° ESE 19:28:31 10° S
ARGOS 4.0 19:17:57 10° S 19:23:09 52° W 19:28:26 10° NNW
ATLAS 2AS CENTAUR R/B 4.2 19:24:47 19° E 19:24:47 19° E 19:28:55 10° ENE
Lacrosse 4 Rocket 3.5 19:21:25 10° NNW 19:23:58 16° NNE 19:25:54 12° ENE
KORONAS-FOTON 3.9 19:21:23 10° N 19:25:17 58° ENE 19:27:14 27° SE
SJ-6B 2.8 19:21:47 11° S 19:25:19 75° WSW 19:29:07 10° NNW
NOSS 2-2 (D) 3.2 19:23:09 10° SSW 19:26:36 54° SE 19:30:36 10° NE
Sich 1 Rocket 4.1 19:24:03 10° SSW 19:28:31 63° WNW 19:33:04 10° N
MOS 1 4.4 19:24:13 10° SSE 19:29:55 77° WSW 19:35:40 10° NNW
Cosmos 1048 Rocket 4.0 19:24:47 10° NNW 19:30:06 85° WSW 19:34:10 18° SSE
CENTAUR R/B 3.1 19:24:46 10° NW 19:32:36 84° NE 19:38:33 23° SE
ATLAS CENTAUR R/B 3.7 19:30:14 10° WNW 19:32:57 18° NNW 19:35:36 10° NNE
Cosmos 1766 4.2 19:33:40 29° E 19:33:40 29° E 19:36:46 10° NNE
Cosmos 1844 4.2 19:30:38 10° S 19:35:47 36° ESE 19:40:55 10° NE
SWAS 4.4 19:32:58 10° NNW 19:37:18 80° NE 19:39:04 35° SE
IGS 5A 4.4 19:37:09 29° E 19:37:42 30° ENE 19:41:22 10° N
Cosmos 1634 Rocket 4.4 19:34:24 22° SE 19:37:46 40° E 19:43:29 10° NNE
ARIANE 5 R/B 3.3 19:37:43 32° E 19:38:43 37° ENE 19:42:43 10° N
ATLAS 3B R/B 3.2 19:32:11 10° NW 19:38:45 49° NNE 19:42:49 24° E
Cosmos 1269 Rocket 4.3 19:34:06 10° NNW 19:39:19 51° ENE 19:41:30 32° ESE
USA 238 DEB 4.0 19:33:22 10° NW 19:40:30 72° SW 19:45:38 22° SSE
Cosmos 2263 Rocket 2.9 19:35:04 10° SW 19:40:32 54° NW 19:46:03 10° NNE
USA 238 4.0 19:33:28 10° NW 19:40:36 73° SW 19:45:43 22° SSE
Cosmos 2285 Rocket 4.3 19:36:19 10° S 19:42:11 43° ESE 19:48:07 10° NE
ISS -2.1 19:39:35 10° SSW 19:41:15 21° S 19:41:15 21° S
Abrixas rocket 3.1 19:40:30 10° WSW 19:42:31 29° SSW 19:42:31 29° SSW
MetOp-B 4.4 19:41:11 31° ESE 19:43:26 50° ENE 19:48:35 10° N
SJ 16-02 4.1 19:41:03 10° W 19:44:25 21° NW 19:47:47 10° N
Cosmos 1844 Rocket 2.7 19:42:15 10° S 19:47:37 52° ESE 19:53:03 10° NE
Okean 2 Rocket 3.6 19:44:12 10° SSW 19:48:39 61° WNW 19:53:07 10° N
Spot 2 Rocket 4.0 19:48:07 34° E 19:49:27 41° ENE 19:54:10 10° N
Cosmos 1464 Rocket 4.4 19:46:20 10° SSW 19:52:25 65° WNW 19:58:35 10° N
Lacrosse 5 rocket 2.2 19:48:27 10° W 19:52:43 51° N 19:55:13 24° ENE
Okean 1 Rocket 3.1 19:51:22 36° SSE 19:52:57 58° E 19:57:24 10° NNE
GRACE-FO 1 4.5 19:49:29 10° N 19:53:15 77° E 19:54:02 53° SSE
GRACE-FO 2 4.5 19:49:51 10° N 19:53:37 77° E 19:54:24 53° SSE
Cosmos 1092 Rocket 3.9 19:49:45 10° N 19:55:56 88° E 20:00:15 21° S
Ariane Rocket 4.2 19:51:31 10° SSW 19:56:17 41° W 20:01:07 10° NNW
Cosmos 2195 Rocket 4.4 19:52:56 10° N 19:59:16 85° E 20:03:07 25° SSE
Meteor 1-15 Rocket 4.1 19:54:29 10° S 20:00:07 82° E 20:05:53 10° NNE
Resurs 1-3 3.9 19:57:58 25° S 20:00:25 65° WSW 20:04:50 10° NNW
Cosmos 494 Rocket 4.2 19:57:51 10° NNW 20:03:06 71° WSW 20:05:36 31° S
Cosmos 2026 Rocket 4.0 19:57:04 10° N 20:03:28 80° E 20:06:56 29° SSE
CZ-2C R/B 3.5 19:59:53 10° NNE 20:04:20 65° ESE 20:05:30 46° SSE
Cosmos 1833 Rocket 3.1 20:00:46 10° NNW 20:06:15 47° NE 20:07:47 38° E
Cosmos 2298 Rocket 4.0 20:01:00 10° SSW 20:06:21 85° WNW 20:11:44 10° NNE
SPOT 3 Rocket 3.8 20:03:38 24° S 20:06:47 67° WSW 20:11:56 10° NNW
NOSS 2-2 (C) 3.5 20:07:37 10° SW 20:11:11 68° NW 20:15:27 10° NE
Cosmos 2251 Rocket 4.4 20:07:00 10° NNW 20:11:55 34° NE 20:12:49 32° ENE
Cosmos 1428 Rocket 4.4 20:09:29 10° N 20:15:49 89° ENE 20:18:51 33° S
Cosmos 1626 2.1 20:14:18 10° NNW 20:17:51 79° NW 20:17:51 79° NW
Terra 3.0 20:19:13 29° ENE 20:19:13 29° ENE 20:23:06 10° N
Cosmos 1892 Rocket 3.4 20:15:47 10° N 20:20:06 70° ENE 20:20:06 70° ENE
Cosmos 2279 Rocket 4.1 20:20:50 46° SE 20:21:59 52° E 20:28:03 10° NNE
Cosmos 2142 Rocket 4.5 20:21:19 44° SSE 20:23:09 61° E 20:29:17 10° NNE
USA 234 3.2 20:19:23 13° ENE 20:25:17 59° SE 20:31:44 10° SW
Meteor 2-5 Rocket 4.1 20:22:17 10° NNW 20:27:49 62° W 20:30:35 30° SSW
CARTOSAT-1 4.2 20:29:31 43° NE 20:29:31 43° NE 20:33:02 10° N
OBJECT-B 3.2 20:34:35 17° WSW 20:35:30 19° W 20:37:54 10° NW
Cosmos 1805 4.0 20:35:56 43° WSW 20:36:40 50° WNW 20:40:30 10° N
SPOT 5 3.2 20:40:09 56° ENE 20:40:10 56° ENE 20:45:22 10° N
Meteor 1-22 Rocket 4.3 20:43:04 42° SSW 20:45:14 87° WNW 20:51:20 10° NNE
Cosmos 2082 Rocket 2.4 20:40:39 10° NNW 20:46:11 54° NE 20:46:33 53° ENE
Okean 1-7 Rocket 3.7 20:42:26 10° NNW 20:46:41 76° NNW 20:46:41 76° NNW
Cosmos 1125 Rocket 3.8 20:41:59 10° SW 20:47:16 66° WNW 20:52:36 10° NNE
Cosmos 1733 4.3 20:52:17 44° NW 20:52:17 44° NW 20:55:36 10° N
SL-14 R/B 4.3 20:48:10 10° NNW 20:51:36 41° W 20:51:36 41° W
COSMOS 2406 3.1 20:48:06 10° NW 20:53:47 74° WSW 20:54:20 68° SSW
Meteor 1-24 Rocket 4.4 20:49:22 10° NNW 20:54:37 49° W 20:56:22 36° SW
ERS-1 Rocket 2.9 20:57:24 76° NNE 20:57:24 76° NNE 21:02:10 10° NNW
Resurs 01 Rocket 3.2 20:56:51 26° WSW 20:58:02 29° W 21:01:57 10° NNW
Cosmos 2098 Rocket 4.0 20:55:24 10° N 21:02:46 88° E 21:03:50 67° SSE
Lacrosse 4 Rocket 2.6 20:59:29 10° NNW 21:02:11 37° N 21:02:11 37° N
Landsat 7 4.4 21:04:40 49° WSW 21:04:51 49° W 21:09:30 10° NNW
Cosmos 2266 Rocket 3.8 20:59:21 10° N 21:05:27 76° ENE 21:05:35 76° E
Exosat Rocket 4.2 21:02:42 10° SW 21:07:54 54° NW 21:12:51 10° NNE
Cosmos 1809 Rocket 4.5 21:02:22 10° N 21:08:28 63° ENE 21:08:28 63° ENE
Meteor 1-21 Rocket 4.2 21:03:35 10° NNW 21:09:09 77° NE 21:09:09 77° NE
Cosmos 1655 Rocket 3.9 21:05:31 10° NNW 21:11:48 80° W 21:12:30 70° SSW
ATLAS CENTAUR R/B 3.8 21:11:09 10° NNW 21:13:09 14° N 21:13:40 14° NNE
ATLAS 2AS CENTAUR R/B 2.9 21:11:59 57° S 21:13:25 66° SE 21:21:11 10° NE
SPOT 1/Viking Rocket 4.0 21:14:25 52° WSW 21:14:36 53° W 21:19:40 10° NNW
ARIANE 5 R/B 4.0 21:15:16 31° W 21:15:16 31° W 21:19:08 10° NNW
Cosmos 2278 Rocket 3.6 21:22:34 27° NE 21:22:34 27° NE 21:25:08 10° NE
Cosmos 1844 4.4 21:14:16 10° SW 21:19:48 51° NW 21:25:19 10° NNE
Cosmos 1455 Rocket 4.3 21:23:00 38° N 21:23:00 38° N 21:25:53 10° N
CENTAUR R/B 4.1 21:15:48 10° NW 21:23:01 37° WSW 21:25:44 30° SSW
ATLAS 3B R/B 2.7 21:23:01 10° NW 21:29:46 65° SW 21:30:03 65° SW
Cosmos 1844 Rocket 4.0 21:26:33 10° WSW 21:31:44 38° NW 21:36:58 10° NNE
Lacrosse 5 rocket 2.9 21:28:00 10° WNW 21:30:51 37° NW 21:30:51 37° NW
Meteor 2-14 Rocket 4.5 21:32:29 10° N 21:38:04 73° NNE 21:38:04 73° NNE
Cosmos 909 Rocket 4.2 21:40:48 10° NW 21:46:53 64° W 21:46:53 64° W
Cosmos 1833 Rocket 3.7 21:44:54 10° NW 21:49:28 39° W 21:49:28 39° W
Cosmos 407 Rocket 4.5 21:46:34 10° NNW 21:50:07 42° N 21:50:07 42° N
Cosmos 2251 Rocket 4.5 21:49:14 10° NNW 21:53:17 43° WNW 21:53:17 43° WNW
Terra 3.2 21:58:06 36° NW 21:58:06 36° NW 22:01:14 10° NNW
USA 234 3.3 22:01:57 10° ENE 22:08:29 75° NNW 22:15:01 10° W
MOS 1-B Rocket 4.4 22:13:52 10° NNE 22:20:17 82° NNW 22:20:17 82° NNW
Cosmos 2082 Rocket 3.7 22:25:04 10° NW 22:28:23 28° WNW 22:28:23 28° WNW
Cosmos 1943 Rocket 4.3 22:35:46 16° NE 22:35:46 16° NE 22:37:03 10° NE
COSMOS 2455 4.3 22:35:51 30° NE 22:35:51 30° NE 22:38:44 10° NE
NOSS 3-4 (A) 4.0 22:41:29 54° NNW 22:41:29 54° NNW 22:47:47 10° NE
NOSS 3-4 (C) 4.0 22:41:40 54° NNW 22:41:40 54° NNW 22:47:53 10° NE
Cosmos 2369 Rocket 4.3 22:59:19 18° NE 22:59:19 18° NE 23:00:57 10° NE
CZ-4C R/B 3.9 23:02:00 28° NE 23:02:00 28° NE 23:04:56 10° NE
Cosmos 2278 Rocket 3.5 23:04:22 36° NW 23:04:22 36° NW 23:09:11 10° NNE
ATLAS 2AS CENTAUR R/B 3.6 22:59:08 20° W 23:04:49 54° NNW 23:12:23 10° NE
NOSS 3-1 (C) 4.1 23:22:11 10° NW 23:28:49 71° N 23:28:49 71° N
Cosmos 2227 Rocket 4.2 23:36:46 10° NNW 23:41:13 23° NNE 23:43:30 18° ENE
USA 234 3.6 23:44:49 10° E 23:54:28 31° WNW 23:57:43 10° WNW
